RH
34 26 39 46 55 48 44 43 39 39 55 60 67 64 60 65 75 63 61 45 41 31 20 10 7 7 4 4 2 2 1 1 1 1 2 1 2 2 2 3 4 4 5 7 11 19 22
33 39 33 38 39 51 39 49 51 53 55 60 79 75 76 68 76 66 66 50 44 33 18 9 7 6 4 4 2 2 1 1 1 1 2 2 2 2 2 3 3 5 6 7 13 17 21
40 48 48 59 47 42 39 51 62 72 77 61 84 83 93 72 82 71 67 58 49 33 19 9 8 6 4 3 2 1 1 1 1 1 1 2 2 2 2 3 4 5 6 7 9 14 21
19 27 38 49 61 62 59 61 66 84 79 76 92 94 99 84 81 71 72 71 52 34 20 9 9 7 4 2 2 1 1 1 1 1 1 1 2 2 2 3 4 5 6 8 12 27 18
11 13 20 32 44 45 44 55 75 67 57 85 100 100 99 90 78 87 79 76 57 40 16 9 9 8 4 2 1 1 1 1 1 1 1 1 2 2 3 3 4 5 6 6 13 13 15
11 10 10 14 17 18 18 26 53 54 60 98 100 100 100 96 87 93 85 75 59 45 16 10 11 7 3 2 1 1 1 1 1 1 1 1 2 3 4 4 4 5 5 6 6 12 11
11 8 8 8 10 12 12 17 36 49 57 100 100 100 100 100 95 99 90 73 68 48 15 11 10 6 3 2 1 1 1 1 1 1 1 2 3 4 4 4 4 6 7 6 10 15 11
9 9 7 7 9 9 16 18 44 35 59 100 100 100 100 100 100 100 89 83 76 50 14 9 10 7 3 2 2 1 1 1 1 1 1 2 2 3 4 5 5 6 8 9 11 15 19
7 8 7 7 7 10 21 21 30 39 89 100 100 100 100 100 100 100 98 94 77 49 18 11 11 8 2 2 2 2 1 1 1 1 2 2 3 4 6 6 6 7 9 9 13 21 29
6 6 7 6 8 11 21 17 35 68 100 100 100 100 100 100 100 100 100 100 75 59 24 15 11 7 3 2 2 2 1 1 1 2 2 2 3 5 9 8 7 8 9 11 16 21 30
5 6 6 6 6 9 19 16 45 90 100 100 100 100 100 100 100 100 100 100 79 64 37 16 13 6 3 2 2 2 2 1 2 2 2 3 3 5 7 7 8 9 10 11 16 26 37
3 5 6 6 6 11 13 28 64 100 100 100 100 100 100 100 100 100 100 99 77 73 46 17 13 6 3 2 2 2 2 2 2 2 3 3 5 6 10 9 9 9 10 12 17 31 32
3 3 4 5 7 10 13 48 83 100 100 100 100 100 100 100 100 100 100 93 77 80 50 15 12 7 4 3 2 2 2 2 2 3 3 4 6 7 12 9 9 8 11 15 17 24 33
3 3 4 4 8 10 21 60 100 100 100 100 100 100 100 100 100 100 100 88 77 72 51 23 11 7 5 3 2 3 3 3 3 3 4 5 7 9 13 12 11 10 11 13 15 16 22
4 3 3 3 7 12 31 57 100 100 100 100 100 100 100 100 100 100 97 86 78 64 57 34 13 8 7 4 3 3 4 4 4 4 4 5 5 7 10 14 14 12 13 15 15 15 18
4 3 3 3 7 16 50 76 100 100 100 100 100 100 100 100 100 100 91 82 78 56 55 34 17 10 7 5 4 4 4 5 6 6 5 6 6 6 7 12 13 14 13 12 13 14 19
4 3 3 4 6 39 62 100 100 100 100 100 100 100 100 100 100 100 92 82 74 55 50 39 20 16 11 7 6 6 7 7 6 7 6 6 7 9 9 12 17 14 14 13 12 11 13
4 4 4 4 14 46 80 100 100 100 100 100 100 100 100 100 100 99 90 83 70 55 52 40 25 19 13 9 8 6 6 6 7 9 10 9 9 9 10 11 14 16 17 16 14 12 14
5 4 5 8 40 75 100 100 100 100 100 100 100 100 100 100 100 95 89 84 69 57 51 41 35 27 21 18 16 15 14 9 8 8 10 9 11 10 11 12 13 14 17 19 18 16 15
4 4 6 19 45 90 100 100 100 100 100 100 100 100 100 100 100 93 92 82 69 60 51 45 37 29 27 27 26 25 22 20 18 13 11 9 10 11 11 11 14 14 16 18 20 22 20
5 6 18 54 84 86 100 100 100 100 100 100 100 100 100 100 97 98 95 81 69 63 53 51 38 33 30 32 34 36 30 28 24 20 23 22 15 11 11 12 11 12 15 16 18 19 21
6 6 24 68 70 100 100 100 100 100 100 100 100 100 100 100 93 100 96 83 67 69 50 54 44 34 29 31 38 41 38 44 38 35 32 34 30 20 15 14 14 13 14 13 14 17 21
7 14 41 48 78 100 100 100 100 100 100 100 100 100 100 100 95 100 98 81 68 72 55 56 46 33 32 35 36 45 46 49 48 46 42 43 35 31 26 19 21 15 14 13 13 14 16
10 43 45 49 97 100 100 100 100 100 100 100 100 100 100 99 89 100 100 85 69 76 65 59 52 42 38 36 37 42 43 49 48 56 55 51 44 42 41 42 32 26 16 14 13 12 14
16 33 35 71 100 100 100 100 100 100 100 100 100 100 100 98 95 100 100 90 75 84 75 63 57 45 40 38 37 40 39 44 46 52 57 58 65 60 48 32 22 25 28 17 15 13 13
17 33 48 87 100 100 100 100 100 100 100 100 100 100 99 94 94 100 100 95 80 88 85 75 58 50 42 46 41 39 41 42 44 50 47 50 60 64 68 55 54 31 23 18 21 17 15
26 43 82 100 100 100 100 100 100 100 100 100 100 100 99 93 92 100 100 96 86 92 92 77 59 54 47 50 50 49 45 42 46 51 48 50 57 61 58 56 55 52 37 37 28 22 13
32 75 99 100 100 100 100 100 100 100 100 100 100 100 100 94 90 99 96 95 90 93 95 82 65 57 53 52 57 57 59 52 46 48 46 49 53 55 56 59 59 47 52 32 31 29 21
38 89 100 100 86 100 100 100 100 100 98 95 100 99 95 83 87 93 98 83 84 92 95 85 73 63 54 52 54 60 65 62 56 54 49 48 50 55 60 63 72 76 73 64 43 25 22
Wind_Speed
107 107 107 108 107 103 98 98 98 96 94 91 90 87 83 76 75 76 73 74 76 77 75 73 71 69 65 68 66 67 64 53 43 35 34 34 36 38 47 56 70 79 83 90 99 105 108
114 115 114 110 110 105 100 100 97 97 94 89 90 84 80 73 74 75 73 74 76 77 75 72 71 67 66 69 69 67 59 50 37 31 30 33 36 38 46 56 65 75 83 92 95 104 108
122 119 116 115 112 106 106 98 96 95 92 88 87 81 82 73 71 74 72 73 76 77 76 72 72 67 67 71 70 66 59 47 34 30 28 32 37 41 50 57 66 75 84 91 96 97 103
108 110 111 112 109 107 102 100 91 88 89 85 82 78 74 71 69 71 70 72 75 77 75 71 70 70 71 72 70 66 59 43 33 29 26 29 37 43 51 55 65 75 84 90 94 99 104
97 99 93 93 102 100 96 92 89 84 79 76 77 78 66 68 66 69 68 72 75 79 72 70 70 72 73 73 70 66 55 38 32 26 22 28 34 43 52 58 67 75 84 90 99 101 100
77 81 86 82 85 87 83 79 76 74 67 69 70 70 65 63 63 67 66 71 75 81 72 71 72 71 73 74 69 63 49 36 28 20 18 23 30 44 53 59 64 71 80 85 89 100 99
69 77 74 73 70 69 69 66 64 67 62 63 63 65 61 59 61 64 65 69 76 82 73 72 69 73 76 71 69 60 44 34 29 14 14 23 35 47 54 58 63 69 77 77 82 90 94
58 62 68 70 63 64 59 52 55 57 53 50 55 57 58 56 58 61 63 68 77 81 72 68 70 73 71 69 68 55 41 35 24 12 11 28 37 40 47 54 59 65 75 80 84 88 89
52 57 65 70 65 59 56 49 52 45 41 43 49 51 52 53 56 59 60 67 75 78 73 67 68 72 70 71 64 50 39 31 21 7 13 28 36 43 48 54 59 65 73 77 83 87 91
54 58 64 68 59 56 54 52 43 37 34 36 43 49 49 50 52 57 57 65 72 78 74 71 66 68 66 67 58 47 37 29 17 3 10 22 33 42 48 53 60 65 70 77 82 85 88
60 58 61 63 66 56 52 50 44 32 30 35 41 47 47 47 49 54 55 62 69 75 74 68 64 63 64 64 55 42 34 29 15 6 10 22 30 39 48 51 57 63 71 75 79 82 88
70 63 66 65 65 58 53 48 42 33 32 35 40 45 45 44 48 50 51 58 65 71 72 66 62 60 61 61 54 41 32 25 16 11 13 17 26 32 45 51 56 61 67 71 75 82 88
71 73 71 67 61 62 53 48 39 32 33 37 42 42 42 41 46 46 48 55 60 63 68 61 58 59 59 56 54 45 35 27 20 13 15 20 22 32 38 45 52 58 65 71 75 82 85
71 75 71 69 67 65 56 52 40 37 36 39 43 40 39 39 41 40 45 51 54 56 64 57 55 57 57 57 57 47 38 31 22 18 10 17 21 29 37 43 47 51 59 67 70 72 76
70 71 72 68 74 67 59 53 45 39 38 41 42 39 37 37 38 38 43 48 47 50 56 55 55 55 58 55 55 51 45 36 30 20 13 7 17 26 33 40 46 50 55 61 66 67 70
68 73 64 68 70 65 60 54 44 41 40 42 40 35 34 34 34 36 38 42 42 42 50 52 53 54 59 59 58 56 53 44 32 26 19 10 5 14 25 36 43 48 51 57 60 63 66
67 66 67 67 70 65 61 54 46 42 42 43 37 34 31 31 30 35 34 35 36 36 43 50 51 57 61 62 59 58 58 53 45 35 23 16 11 7 16 29 35 39 46 50 53 55 58
69 65 70 72 73 68 61 52 46 43 43 42 35 32 29 28 27 31 28 28 30 30 38 48 53 56 60 60 62 59 58 55 50 41 30 20 13 5 6 16 27 34 39 44 47 49 52
69 65 68 72 69 66 60 53 48 45 43 38 34 30 27 26 26 25 23 22 25 24 31 40 46 54 57 58 60 61 62 60 56 49 38 30 20 12 4 4 12 22 31 38 43 47 51
71 64 68 77 78 68 58 54 49 45 42 37 32 27 25 24 24 20 18 18 20 20 26 36 39 45 51 55 57 57 58 56 56 52 48 40 30 21 11 4 6 12 21 31 39 45 51
69 68 77 76 69 68 59 52 49 45 42 35 30 27 25 23 21 15 15 14 17 17 24 31 33 39 45 51 52 54 53 52 51 51 48 48 43 35 22 15 8 10 15 22 31 38 45
73 76 79 77 77 67 61 54 51 47 40 33 31 26 24 22 17 13 12 11 14 15 21 27 33 34 39 45 51 53 52 54 54 52 47 47 42 38 33 24 17 13 12 20 27 30 38
73 78 82 80 73 68 63 56 52 45 39 35 30 27 25 22 17 12 10 9 12 13 19 25 31 34 38 43 47 52 53 53 53 53 54 54 49 44 39 31 28 25 19 19 22 27 36
77 81 81 77 70 61 58 57 52 45 39 34 33 31 26 23 17 12 9 7 9 10 17 24 27 32 39 40 43 47 49 53 54 57 57 57 53 50 50 44 36 28 26 24 23 25 29
77 80 78 73 68 62 56 52 47 42 38 35 35 31 27 21 18 14 11 5 7 8 13 20 23 30 35 40 42 47 46 50 52 55 57 61 62 59 55 46 37 36 40 29 25 24 28
72 79 76 67 64 59 55 50 45 41 36 35 36 30 28 23 20 14 11 5 6 7 12 17 21 25 31 37 42 45 48 50 52 56 52 55 62 62 64 63 65 50 46 37 35 33 26
79 77 73 69 64 60 54 48 43 39 36 34 35 32 29 25 19 16 10 6 6 7 11 16 21 24 28 34 39 45 47 47 52 56 56 52 58 61 62 62 65 67 60 60 50 40 33
78 76 72 68 65 60 54 47 40 39 36 36 35 34 30 25 22 18 11 8 7 6 9 13 19 21 27 30 36 42 46 52 54 55 57 57 59 60 61 67 70 68 75 65 59 52 45
77 73 70 66 61 57 53 47 44 39 37 38 38 35 31 27 23 18 12 10 7 6 8 12 17 20 22 28 32 38 44 49 54 59 59 62 61 65 68 66 78 84 85 83 69 60 51
Wind_Direction
279 279 280 280 282 284 285 288 292 293 295 299 300 303 308 306 305 309 310 311 315 317 323 326 328 329 327 327 328 325 320 309 297 280 266 256 241 232 222 215 213 210 206 208 209 212 211
274 275 275 276 278 280 282 284 286 291 292 296 297 299 305 303 303 307 308 311 314 317 323 328 330 330 328 329 331 325 323 315 299 281 260 250 233 219 213 213 208 208 204 209 210 211 212
271 271 273 273 272 273 276 278 282 285 286 291 295 298 301 299 302 304 307 311 315 318 324 329 333 331 330 333 333 328 327 318 304 286 263 243 225 214 209 208 205 204 203 208 210 211 213
270 270 268 270 270 271 272 273 276 280 283 285 288 293 299 295 300 304 306 312 314 319 326 329 336 333 333 336 333 333 331 321 309 290 261 238 221 208 207 202 202 204 201 206 208 212 212
268 266 263 266 268 268 271 271 270 274 279 281 285 290 294 294 300 304 307 311 315 318 328 333 339 336 336 337 337 335 332 322 313 289 255 231 216 205 204 202 201 202 202 204 207 213 211
270 264 261 258 262 265 265 267 267 266 272 277 283 289 289 292 297 302 307 311 316 318 328 336 340 336 340 339 338 337 332 327 320 292 236 220 202 200 200 203 202 201 203 205 208 210 210
270 262 256 253 252 257 259 260 257 260 266 273 279 287 286 289 297 301 306 313 314 318 329 338 342 341 343 341 342 339 337 332 330 293 225 197 193 197 201 202 201 200 206 206 210 213 214
268 260 252 249 244 248 249 251 250 253 258 271 277 281 281 287 295 300 307 313 313 318 331 342 346 346 343 347 345 343 340 337 334 310 212 194 192 193 196 198 199 200 203 204 208 211 213
258 255 244 243 241 237 239 240 243 242 256 265 269 275 279 286 292 298 308 312 314 320 332 341 348 346 347 352 346 346 345 343 341 330 203 197 188 188 190 193 198 199 203 204 207 208 213
241 236 235 236 231 227 234 233 227 231 245 255 263 268 276 283 291 297 309 312 315 321 332 339 350 348 354 353 351 350 352 356 355 8 198 196 188 181 185 193 196 200 201 203 207 212 213
229 225 224 227 226 217 225 226 214 220 230 246 254 263 273 282 291 297 309 312 317 322 329 341 352 351 360 358 357 359 2 7 28 85 163 180 184 185 186 193 195 201 203 205 207 209 213
224 220 219 216 217 211 219 208 201 210 226 238 250 260 270 279 288 298 309 312 318 325 331 343 352 357 3 5 5 8 17 25 43 84 125 159 173 181 185 193 197 202 205 205 206 209 215
226 222 213 211 207 206 206 195 189 197 215 231 245 256 267 277 287 298 307 312 321 328 331 343 351 3 9 11 15 16 28 37 49 80 129 145 167 181 188 197 202 203 203 208 209 210 213
222 222 214 209 194 202 195 186 184 199 211 229 240 251 264 274 288 299 305 312 324 331 331 344 354 5 12 15 23 26 32 42 48 57 109 138 166 182 190 198 201 206 209 213 214 215 216
216 218 214 206 195 190 183 179 178 194 208 225 236 247 260 274 286 297 304 314 326 336 333 348 354 4 15 21 27 33 36 40 48 51 72 137 177 183 193 196 205 205 209 216 217 220 222
211 217 212 203 191 178 176 173 177 193 208 222 234 243 258 274 285 292 305 315 328 340 338 351 354 4 11 22 28 33 39 42 45 51 60 74 184 204 203 201 208 207 213 217 218 220 223
208 213 203 195 181 170 170 167 178 193 205 222 231 242 257 271 282 291 306 316 330 345 347 352 357 4 10 15 26 34 36 38 38 39 46 60 91 188 220 212 217 219 216 221 226 224 224
206 204 200 191 172 169 164 162 180 192 206 220 228 240 254 269 278 290 305 320 333 346 354 358 0 4 9 15 18 29 39 39 40 41 41 41 46 75 180 218 220 224 225 225 228 228 229
201 198 190 177 166 167 164 169 181 192 207 217 225 236 250 266 272 289 303 322 336 346 356 4 3 4 11 17 23 24 28 33 34 37 39 38 42 41 33 232 227 229 227 229 230 230 227
199 200 178 171 166 168 171 177 187 197 206 214 222 229 248 263 267 284 300 324 339 347 359 9 10 7 13 21 23 28 31 32 32 30 29 31 33 27 27 355 256 236 231 233 232 232 233
190 181 170 163 168 163 172 178 189 195 204 211 216 228 245 246 263 272 295 323 341 346 2 12 10 15 18 24 27 29 31 33 34 30 29 26 22 22 21 7 339 283 252 241 237 239 237
187 180 170 163 168 169 172 180 187 194 200 205 210 228 239 240 248 261 286 321 342 352 3 15 11 21 23 26 30 32 31 34 36 37 35 31 30 24 19 11 2 333 299 277 260 246 245
178 175 170 169 167 168 172 178 184 191 196 201 209 229 232 232 233 242 270 311 343 358 360 13 15 22 30 30 31 31 30 31 33 34 31 32 32 30 29 20 8 357 337 298 271 264 259
173 173 171 165 164 171 177 181 182 188 194 201 210 218 219 223 219 226 250 299 335 358 357 14 11 16 28 30 30 31 29 29 27 29 30 31 27 27 25 25 21 3 349 336 307 279 263
175 177 171 163 164 175 180 183 183 188 194 201 209 212 212 213 211 216 238 278 327 351 354 8 7 14 25 30 30 31 28 28 26 25 28 29 29 24 21 16 10 12 12 353 331 314 288
183 174 166 164 168 175 180 182 186 192 194 201 207 204 210 205 203 212 232 255 301 330 349 352 357 6 22 26 28 30 32 27 24 21 23 25 25 24 20 16 17 9 2 356 354 340 314
177 165 165 170 175 177 181 183 189 192 200 205 205 205 204 202 198 208 225 240 275 316 343 349 352 2 12 20 23 25 25 22 21 20 21 23 25 21 19 16 12 11 6 5 357 348 331
169 166 169 175 177 176 181 185 192 196 200 206 204 196 194 199 201 208 213 234 250 302 329 334 340 359 8 15 17 18 16 19 18 17 15 15 19 19 16 15 13 7 5 1 358 351 343
172 170 173 176 179 176 180 184 192 200 205 201 196 197 198 198 205 204 216 233 244 282 313 322 326 338 356 6 11 14 12 11 13 12 10 10 12 14 17 15 14 11 4 2 358 354 348